Location: 476 Grange Obs.
(45.1421°N, 7.1417°E)
Time: 01:46:41
(UTC+01:00)

Envisat - Pass Details

Date: 25 October 2019
Orbit: 764 x 766 km, 98.1° (Epoch: 20 November)

Event Time Altitude Azimuth Distance (km) Brightness Sun altitude
Rises 19:43:07 0° 172° (S) 3,219 6.2 -13.4°
Reaches altitude 10° 19:45:25 10° 175° (S) 2,297 5.5 -13.8°
Maximum altitude 19:50:28 67° 258° (WSW) 829 3.4 -14.7°
Drops below altitude 10° 19:55:33 10° 342° (NNW) 2,313 5.7 -15.6°
Sets 19:57:53 0° 345° (NNW) 3,244 6.4 -16.0°
